Location: Unspecified
(0.0000°N, 0.0000°E)
Time: 03:42:23
(UTC+02:00)

ATLAS V CENTAUR R/B - Visible Passes

Search period start: 01 August 2014 00:00
Search period end: 11 August 2014 00:00
Orbit: 224 x 30601 km, 18.0° (Epoch: 31 July)

Date Brightness Start Highest point End Pass type
(mag) Time Alt. Az. Time Alt. Az. Time Alt. Az.
01 Aug 6.8 03:44:41 38° N 03:46:45 39° NNE 11:31:52 10° ESE visible
01 Aug 3.3 20:58:56 10° WSW 21:08:40 58° S 21:10:01 29° E visible
02 Aug 7.6 06:26:15 10° WNW 11:15:24 78° SSE 14:37:14 10° ESE visible
04 Aug 7.2 02:51:07 28° NE 02:51:07 28° NE 10:19:51 10° ESE visible
05 Aug 7.2 05:30:17 20° NW 11:11:07 68° SE 13:36:31 10° ESE visible
07 Aug 7.8 01:54:37 14° ENE 01:54:37 14° ENE 01:58:32 10° ENE visible
07 Aug 11.7 06:51:05 10° E 07:50:37 12° ESE 08:35:01 10° ESE visible
08 Aug 6.9 04:32:41 37° NNW 10:23:52 55° ESE 12:30:40 10° ESE visible
08 Aug 4.4 21:53:00 10° W 21:55:45 26° WNW 21:55:45 26° WNW visible
09 Aug 8.0 07:14:25 10° WNW 08:53:49 87° E 15:25:28 10° ESE visible
